Location: Songkhla
(7.2000°N, 100.6000°E)
Time: 12:13:00
(UTC+07:00)

First-Move - Pass Details

Date: 02 August 2021
Orbit: 576 x 665 km, 97.6° (Epoch: 23 September)

Event Time Altitude Azimuth Distance (km) Brightness Sun altitude
Rises 05:20:27 0° 351° (N) 2,966 ? -12.7°
Reaches altitude 10° 05:22:56 10° 339° (NNW) 2,065 ? -12.1°
Maximum altitude 05:26:41 26° 283° (WNW) 1,289 ? -11.3°
Enters shadow 05:30:10 12° 228° (SW) 1,977 ? -10.4°
